Location: Vancouver
(49.2500°N, 123.1330°W)
Time: 23:17:57
(UTC-07:00)

Cosmos 676 Rocket - Visible Passes

Search period start: 24 October 2014 00:00
Search period end: 02 November 2014 23:00
Orbit: 755 x 786 km, 74.0° (Epoch: 24 October)

Date Brightness Start Highest point End Pass type
(mag) Time Alt. Az. Time Alt. Az. Time Alt. Az.
24 Oct 6.0 19:57:43 10° NNE 19:59:37 13° NNE 19:59:37 13° NNE visible
24 Oct 6.1 21:38:15 10° NNW 21:39:56 20° N 21:39:56 20° N visible
25 Oct 5.7 21:02:07 10° N 21:04:23 23° N 21:04:23 23° N visible
25 Oct 6.9 22:44:18 10° NW 22:44:42 12° NW 22:44:42 12° NW visible
26 Oct 5.6 20:26:06 10° N 20:28:51 22° NNE 20:28:51 22° NNE visible
26 Oct 6.4 22:07:49 10° NNW 22:09:10 18° NNW 22:09:10 18° NNW visible
27 Oct 5.6 19:50:13 10° N 19:53:21 18° NE 19:53:21 18° NE visible
27 Oct 5.8 21:31:28 10° NNW 21:33:41 26° NNW 21:33:41 26° NNW visible
28 Oct 5.8 19:14:37 10° NNE 19:17:09 13° NE 19:17:54 13° NE visible
28 Oct 5.3 20:55:13 10° NNW 20:58:13 33° N 20:58:13 33° N visible
28 Oct 6.9 22:38:03 10° NW 22:38:33 12° NW 22:38:33 12° NW visible
29 Oct 5.0 20:19:05 10° NNW 20:22:49 34° NNE 20:22:49 34° NNE visible
29 Oct 6.3 22:01:19 10° NW 22:03:08 20° NW 22:03:08 20° NW visible
30 Oct 5.1 19:43:03 10° N 19:47:27 27° NE 19:47:27 27° NE visible
30 Oct 5.5 21:24:48 10° NNW 21:27:47 33° NW 21:27:47 33° NW visible
31 Oct 5.4 19:07:09 10° N 19:10:54 19° NE 19:12:10 18° ENE visible
31 Oct 4.5 20:48:26 10° NNW 20:52:30 53° NNW 20:52:30 53° NNW visible
31 Oct 7.0 22:32:21 10° WNW 22:32:51 11° WNW 22:32:51 11° WNW visible
01 Nov 5.8 18:31:31 10° N 18:34:10 14° NE 18:36:48 10° ENE visible
01 Nov 4.1 20:12:11 10° NNW 20:17:18 59° NE 20:17:18 59° NE visible
01 Nov 6.3 21:55:04 10° NW 21:57:39 20° WNW 21:57:39 20° WNW visible
02 Nov 4.5 18:36:02 10° NNW 18:41:04 39° ENE 18:42:13 35° E visible
02 Nov 5.4 20:18:18 10° NW 20:22:34 35° W 20:22:34 35° W visible
